Location: Firenze
(43.7670°N, 11.2500°E)
Time: 02:37:08
(UTC+01:00)

ISS - Visible Passes

Search period start: 08 December 2021 00:00
Search period end: 18 December 2021 00:00
Orbit: 417 x 422 km, 51.6° (Epoch: 07 December)

Date Brightness Start Highest point End Pass type
(mag) Time Alt. Az. Time Alt. Az. Time Alt. Az.
08 Dec -1.5 18:04:58 10° WNW 18:07:53 27° SW 18:10:47 10° SSE visible
09 Dec -2.4 17:17:21 10° WNW 17:20:36 44° SW 17:23:50 10° SE visible
11 Dec -0.5 17:20:05 10° W 17:22:19 17° SW 17:24:32 10° S visible
16 Dec 0.0 06:56:03 10° SSE 06:57:11 11° SE 06:58:20 10° ESE visible
